Terminal Aerodrome Forecast
Issued by NWS Pueblo, CO

Home | Current Version | Previous Version | Text Only | Print | Product List | Glossary On
Versions: 1 2 3 4 5 6 7 8 9 10 11 12 13 14 15 16 17 18 19 20 21 22 23 24 25 26 27 28 29 30 31 32 33 34 35 36 37 38 39 40 41 42 43 44 45 46 47 48 49 50
000
FTUS45 KPUB 190520
TAFALS
TAF
KALS 190520Z 1906/2006 VRB05KT P6SM FEW060 SCT100
     FM191600 03007KT P6SM SCT100
     FM192200 32013KT P6SM VCSH SCT040 BKN100
     FM200200 14001KT P6SM FEW050 SCT100=

USA.gov is the U.S. government's official web portal to all federal, state and local government web resources and services.